Weather History for Deadhorse, AK

Change the Weather History Date:

Sunday, August 25, 2013

  Actual Average Record
Temperature  
Mean Temperature 38 °F -  
Max Temperature 42 °F 43 °F 65 °F (1989)
Min Temperature 34 °F 33 °F 27 °F (1991)
Degree Days  
Heating Degree Days 28    
Moisture  
Dew Point 34 °F    
Average Humidity 89    
Maximum Humidity 100    
Minimum Humidity 70    
Precipitation  
Precipitation 0.00 in - - ()
Sea Level Pressure  
Sea Level Pressure 30.06 in    
Wind  
Wind Speed 4 mph (North)    
Max Wind Speed 9 mph    
Max Gust Speed -    
Visibility 10 miles    
Events Rain    
Averages and records for this station are not official NWS values.
T = Trace of Precipitation, MM = Missing Value Source: NWS Daily Summary

Daily Weather History Graph

Daily Weather History Graph

Search for Another Location

Airport:

Trip Planner

Search our weather history database for the weather conditions in past years. The results will help you decide how hot, cold, wet, or windy it might be!

Date:

Astronomy

Aug. 25, 2013 Rise Set
Actual Time 5:39 AM AKDT 10:09 PM AKDT
Civil Twilight 4:10 AM AKDT 11:35 PM AKDT
Nautical Twilight Sun does not rise Sun does not rise
Astronomical Twilight Sun does not rise Sun does not rise
Moon 8:58 PM AKDT (8/25) 2:32 PM AKDT (8/25)
Length of Visible Light 19h 25m
Length of Day
16h 30m
Waning Gibbous, 74% of the Moon is Illuminated
Aug 25
Waning Gibbous
Aug 28
Last Quarter
Sep 5
New
Sep 12
First Quarter
Sep 19
Full

Hourly Weather History & Observations

Time (AKDT) Temp. Windchill Dew Point Humidity Pressure Visibility Wind Dir Wind Speed Gust Speed Precip Events Conditions
12:22 AM 37.4 °F - 35.6 °F 93% 30.06 in 10.0 mi Calm Calm - 0.00 in Rain Light Rain
12:53 AM 36.0 °F 32.1 °F 34.0 °F 93% 30.06 in 10.0 mi West 4.6 mph - 0.00 in   Overcast
1:00 AM 35.6 °F 32.8 °F 35.6 °F 100% 30.06 in 10.0 mi West 3.5 mph - N/A   Overcast
1:04 AM 35.6 °F 31.7 °F 35.6 °F 100% 30.06 in 10.0 mi West 4.6 mph - N/A   Overcast
1:53 AM 37.0 °F - 36.0 °F 96% 30.06 in 3.0 mi Calm Calm - N/A   Overcast
2:53 AM 37.0 °F 34.5 °F 36.0 °F 96% 30.06 in 10.0 mi West 3.5 mph - N/A   Overcast
3:44 AM 35.6 °F 32.8 °F 35.6 °F 100% 30.06 in 10.0 mi West 3.5 mph - N/A   Overcast
3:53 AM 36.0 °F 32.1 °F 35.1 °F 97% 30.06 in 10.0 mi West 4.6 mph - N/A   Overcast
4:08 AM 35.6 °F 31.7 °F 35.6 °F 100% 30.06 in 10.0 mi West 4.6 mph - N/A   Overcast
4:53 AM 37.0 °F - 35.1 °F 93% 30.06 in 10.0 mi Calm Calm - N/A   Overcast
5:53 AM 37.0 °F 33.3 °F 35.1 °F 93% 30.06 in 10.0 mi NNW 4.6 mph - N/A   Overcast
6:36 AM 35.6 °F - 35.6 °F 100% 30.05 in 10.0 mi Calm Calm - N/A   Overcast
6:53 AM 36.0 °F - 36.0 °F 100% 30.06 in 10.0 mi Calm Calm - N/A   Overcast
7:03 AM 35.6 °F - 35.6 °F 100% 30.05 in 10.0 mi Calm Calm - N/A   Overcast
7:44 AM 37.4 °F 34.9 °F 35.6 °F 93% 30.05 in 10.0 mi West 3.5 mph - N/A   Overcast
7:53 AM 37.0 °F 33.3 °F 35.1 °F 93% 30.06 in 10.0 mi West 4.6 mph - N/A   Overcast
8:53 AM 37.0 °F 31.6 °F 35.1 °F 93% 30.06 in 10.0 mi NW 6.9 mph - N/A   Overcast
9:53 AM 37.0 °F 33.3 °F 34.0 °F 89% 30.06 in 10.0 mi North 4.6 mph - N/A   Overcast
10:53 AM 37.9 °F 34.4 °F 34.0 °F 86% 30.06 in 10.0 mi North 4.6 mph - 0.00 in   Overcast
11:53 AM 39.0 °F 36.8 °F 33.1 °F 79% 30.06 in 10.0 mi North 3.5 mph - N/A   Overcast
12:53 PM 39.9 °F 36.7 °F 32.0 °F 73% 30.06 in 10.0 mi NNE 4.6 mph - N/A   Overcast
1:53 PM 39.9 °F 34.5 °F 33.1 °F 77% 30.06 in 10.0 mi NE 8.1 mph - N/A   Overcast
2:53 PM 41.0 °F 36.4 °F 32.0 °F 70% 30.07 in 10.0 mi North 6.9 mph - N/A   Overcast
3:20 PM 41.0 °F 37.1 °F 32.0 °F 70% 30.06 in 10.0 mi North 5.8 mph - N/A   Overcast
3:53 PM 41.0 °F 36.4 °F 33.1 °F 73% 30.07 in 10.0 mi NNE 6.9 mph - N/A   Mostly Cloudy
4:23 PM 41.0 °F 35.8 °F 33.8 °F 76% 30.07 in 10.0 mi NNE 8.1 mph - N/A   Mostly Cloudy
4:48 PM 39.2 °F 33.0 °F 33.8 °F 81% 30.07 in 10.0 mi NNE 9.2 mph - N/A   Overcast
4:53 PM 39.9 °F 35.1 °F 33.1 °F 77% 30.07 in 10.0 mi NNE 6.9 mph - N/A   Overcast
5:53 PM 39.0 °F 32.8 °F 35.1 °F 86% 30.08 in 10.0 mi NNE 9.2 mph - N/A   Overcast
6:07 PM 39.2 °F 33.6 °F 33.8 °F 81% 30.07 in 10.0 mi NNE 8.1 mph - N/A   Overcast
6:46 PM 39.2 °F 33.6 °F 33.8 °F 81% 30.07 in 10.0 mi NE 8.1 mph - N/A   Overcast
6:53 PM 39.0 °F 34.0 °F 34.0 °F 82% 30.07 in 10.0 mi NNE 6.9 mph - N/A   Overcast
7:43 PM 37.4 °F 30.8 °F 33.8 °F 87% 30.07 in 10.0 mi NNE 9.2 mph - N/A   Overcast
7:53 PM 37.9 °F 31.5 °F 33.1 °F 83% 30.07 in 10.0 mi NNE 9.2 mph - N/A   Overcast
8:33 PM 35.6 °F 29.9 °F 33.8 °F 93% 30.07 in 10.0 mi NNE 6.9 mph - N/A   Overcast
8:46 PM 35.6 °F 29.9 °F 33.8 °F 93% 30.07 in 10.0 mi NE 6.9 mph - N/A   Overcast
8:53 PM 36.0 °F 29.0 °F 33.1 °F 89% 30.07 in 10.0 mi NNE 9.2 mph - N/A   Overcast
9:53 PM 35.1 °F 30.1 °F 32.0 °F 89% 30.08 in 10.0 mi NE 5.8 mph - N/A   Overcast
10:53 PM 34.0 °F 28.8 °F 33.1 °F 96% 30.08 in 10.0 mi NE 5.8 mph - N/A   Overcast
11:53 PM 34.0 °F 28.8 °F 32.0 °F 92% 30.08 in 10.0 mi NE 5.8 mph - N/A   Overcast